Regional Weather Roundup
Issued by NWS Nashville, TN

Home | Current Version | Previous Version | Text Only | Print | Product List | Glossary On
Versions: 1 2 3 4 5 6 7 8 9 10 11 12 13 14 15 16 17 18 19 20 21 22 23 24 25 26 27 28 29 30 31 32 33 34 35 36 37 38 39 40 41 42 43 44 45 46 47 48 49 50
000
ASUS44 KOHX 311415
RWROHX
MIDDLE TENNESSEE HOURLY WEATHER ROUNDUP
NATIONAL WEATHER SERVICE NASHVILLE TN
900 AM CDT THU JUL 31 2014

NOTE: "FAIR" INDICATES FEW OR NO CLOUDS BELOW 12,000 FEET WITH
NO SIGNIFICANT WEATHER AND/OR OBSTRUCTIONS TO VISIBILITY.

* THESE REPORTS ARE NOT UNDER NWS QUALITY CONTROL AND MAY NOT
  REPORT WEATHER SUCH AS PRECIPITATION AND FOG.


TNZ005>011-023>034-057-059-062>066-078-080-311500
...NORTHERN MIDDLE TENNESSEE...

CITY           SKY/WX    TMP DP  RH WIND       PRES   REMARKS
CLARKSVILLE    SUNNY     72  59  63 E5        30.12R
CROSSVILLE     CLOUDY    65  59  81 CALM      30.16R
GALLATIN         N/A     68  63  84 CALM      30.13R
DICKSON        SUNNY     70  61  73 CALM      30.12R
LEBANON        PTSUNNY   66  60  81 CALM      30.11R
LIVINGSTON       N/A     67  59  75 CALM      30.14R
NASHVILLE      PTSUNNY   72  60  66 E5        30.12S
WEST NASHVILLE   N/A     70  63  78 CALM      30.12S
PORTLAND       PTSUNNY   70  61  73 E3        30.12R
SMYRNA         CLOUDY    68  63  84 CALM      30.13S
SPARTA         SUNNY     66  63  88 CALM      30.13R
$$
TNZ056-058-060-061-075>077-079-093>097-311500
...SOUTHERN MIDDLE TENNESSEE...

CITY           SKY/WX    TMP DP  RH WIND       PRES   REMARKS
COLUMBIA       SUNNY     66  63  88 CALM      30.11S
FAYETTEVILLE   SUNNY     66  61  82 NE9       30.11S
LEWISBURG      PTSUNNY   66  60  81 CALM      30.12R
MCMINNVILLE    SUNNY     64  64 100 CALM      30.13R
MURFREESBORO   CLOUDY    66  62  87 CALM      30.12R
SHELBYVILLE    SUNNY     66  63  88 CALM      30.13S
TULLAHOMA      SUNNY     66  61  82 NE3       30.13S
WINCHESTER     SUNNY     64  61  88 CALM      30.12S
$$


...KEY TO REMARKS...
VSB - VISIBILITY IN MILES
WCI - WIND CHILL INDEX
HX  - HEAT INDEX



USA.gov is the U.S. government's official web portal to all federal, state and local government web resources and services.